sat.trackr.live / text

‹ back to catalog

STARLINK-5547

NORAD 55352 · 2023-013X

PAYLOAD ACTIVE UNKNOWN

§ Identity

Operator
Country
US
Launch date
2023-01-26
Launch site
AFETR
Launch vehicle
Mass (kg)
RCS (m²)

Purposes: comms

External: N2YO · Heavens-Above · Gunter

§ Orbital elements

Epoch: 2026-09-20T13:02:02.563872Z

Period
94.27 min
Inclination
43.0013°
Eccentricity
0.0000966
Mean motion
15.27574703 rev/d
Perigee alt
482.4 km
Apogee alt
483.7 km
Semi-major
6,861.2 km
B*
-1.3091e-5
RAAN
279.5766°
Arg perigee
270.7267°
Mean anomaly
89.3474°
Rev number
20,151

§ Raw data

STARLINK-55471 55352U 23013X   26263.54308523 -.00000622  00000+0 -13091-4 0  99972 55352  43.0013 279.5766 0000966 270.7267  89.3474 15.27574703201512

JSON: /api/v1/satellites/55352 · /tle

For live sub-satellite position, see the globe view (requires WebGL).

§ Visibility from observer

Set your observer location to see the next 7 days of passes ≥ 10°. The values pass through the URL so the page stays shareable.

No JS? Fill the form by hand. The geolocation button needs JavaScript.